Regional Weather Roundup
Issued by NWS

Home | Current Version | Previous Version | Graphics & Text | Print | Product List | Glossary Off
Versions: 1 2 3 4 5 6 7 8 9 10 11 12 13 14 15 16 17 18 19 20 21 22 23 24 25 26 27 28 29 30 31 32 33 34 35 36 37 38 39 40 41 42 43 44 45 46 47 48 49 50

000
ASUS43 KMKX 300359
RWRWI

WISCONSIN REGIONAL WEATHER ROUNDUP
NATIONAL WEATHER SERVICE MILWAUKEE/SULLIVAN WI
1000 PM CST THU JAN 29 2015

NOTE: "FAIR" INDICATES FEW OR NO CLOUDS BELOW 12,000 FEET WITH NO
SIGNIFICANT WEATHER AND/OR OBSTRUCTIONS TO VISIBILITY.

WIZ001-002-006>008-014>016-023>028-300500-
NORTHWEST WISCONSIN

CITY           SKY/WX    TMP DP  RH WIND       PRES   REMARKS
SUPERIOR ARPT  CLEAR      9   2  72 NW7       30.51R WCI  -2
ASHLAND        CLOUDY    15   4  61 NW8       30.46R WCI   4
HAYWARD        CLOUDY    12   3  67 NW6       30.44R WCI   3
SIREN          CLEAR     12   3  67 N8        30.49R WCI   0
CUMBERLAND     PTCLDY    12   3  67 N12       30.44R WCI  -2
RICE LAKE      PTCLDY    13   4  67 N13       30.46R WCI  -1
CHETEK         CLEAR     13   5  70 NW7       30.45R WCI   2
LADYSMITH      CLOUDY    16   7  67 NW13      30.42R WCI   3
EAU CLAIRE     NOT AVBL
MENOMONIE      PTCLDY    17   8  66 NW12      30.46R WCI   4
NEW RICHMOND   CLEAR     14   6  71 N10       30.48R WCI   1
OSCEOLA        CLEAR     15   7  69 NW7       30.52R WCI   5
$$

WIZ003>005-009-010-017-018-300500-
NORTH CENTRAL WISCONSIN

CITY           SKY/WX    TMP DP  RH WIND       PRES   REMARKS
MANITOWISH WTR LGT SNOW  14   8  76 NW14G24   30.32R WCI  -1
ARBOR VITAE    LGT SNOW  17  10  74 N16       30.31R WCI   1
WOODRUFF       LGT SNOW  17  10  74 N16       30.31R WCI   1
RHINELANDER    CLOUDY    16   6  65 N12G20    30.31R WCI   3
EAGLE RIVER    CLOUDY    15   7  71 N14G21    30.29R WCI   0
LAND O LAKES   FLURRIES  15  10  79 N14G20    30.30R WCI   0
PHILLIPS       CLOUDY    15   7  71 NW13G20   30.35R WCI   1
TOMAHAWK       CLOUDY    17   9  71 NW10G17   30.33R WCI   4
MEDFORD        CLOUDY    17   7  65 NW13      30.34R WCI   3
MERRILL        CLOUDY    19  11  71 N9        30.33R WCI   7
$$

WIZ029-030-035-036-043>047-300500-
CENTRAL WISCONSIN

CITY           SKY/WX    TMP DP  RH WIND       PRES   REMARKS
WAUSAU         CLOUDY    20   7  57 N13G18    30.32R WCI   7
MOSINEE        LGT SNOW  19  16  86 N14       30.34R WCI   6
MARSHFIELD     CLOUDY    20   9  62 NW17      30.35R WCI   5
STEVENS POINT  CLOUDY    21  11  65 NW13G20   30.33R WCI   9
WAUPACA        CLOUDY    26   9  48 N14G20    30.33R WCI  15
WAUTOMA        NOT AVBL
WISC RAPIDS    CLOUDY    22  10  60 NW14G23   30.36R WCI   9
CAMP DOUGLAS   NOT AVBL
$$

WIZ011>013-019>022-031-037>040-048>050-300500-
NORTHEAST WISCONSIN

CITY           SKY/WX    TMP DP  RH WIND       PRES   REMARKS
ANTIGO         CLOUDY    17  10  75 N15G25    30.29R HAZE    WCI   2
SHAWANO        CLOUDY    25  14  64 NW5       30.32R WCI  19
OCONTO         CLOUDY    22  10  61 MISG      30.31R
STURGEON BAY   PTCLDY    18   7  62 N20G26    30.31R WCI   1
GREEN BAY      CLOUDY    23  12  62 N12G20    30.31R WCI  12
MANITOWOC      NOT AVBL
APPLETON       CLOUDY    23  10  58 N13G21    30.31R WCI  11
CLINTONVILLE   CLOUDY    23  16  74 NW10      30.31R WCI  12
OSHKOSH        CLOUDY    24  11  57 N13       30.31R WCI  12
$$

WIZ032>034-041-042-053>061-300500-
SOUTHWEST WISCONSIN

CITY           SKY/WX    TMP DP  RH WIND       PRES   REMARKS
LA CROSSE      PTCLDY    23  10  57 N18       30.43R WCI   9
SPARTA         CLOUDY    23  11  60 NW12      30.40R WCI  12
VIROQUA        CLOUDY    23  14  67 N15G24    30.35R WCI  10
BOSCOBEL       PTCLDY    28  12  51 N13       30.39R WCI  17
PRAIRIE DU CHI CLOUDY    28  15  58 NW12      30.40R WCI  18
PLATTEVILLE    CLOUDY    27  16  62 NW20      30.34R WCI  14
$$

WIZ056-057-062-063-064-067-068-300500-
SOUTH CENTRAL WISCONSIN

CITY           SKY/WX    TMP DP  RH WIND       PRES   REMARKS
REEDSBURG      MIX PCPN  27  17  66 NW12      30.33R WCI  16
BARABOO/DELLS  CLOUDY    27  14  58 N15G21    30.32R WCI  15
LONE ROCK      NOT AVBL
MINERAL POINT  CLOUDY    30  18  59 NW12G18   30.32R WCI  21
MADISON        CLOUDY    28  14  55 N15G25    30.31R WCI  16
MIDDLETON      CLOUDY    30  19  64 N13G18    30.31R WCI  20
WATERTOWN      LGT SNOW  27  24  89 N12G20    30.29R WCI  16
MONROE         CLOUDY    28  18  64 NW16G24   30.29R WCI  17
JANESVILLE     CLOUDY    32  19  59 N10G20    30.29R WCI  24
$$

WIZ051-052-058>065-066-070>072-300500-
SOUTHEAST WISCONSIN

CITY           SKY/WX    TMP DP  RH WIND       PRES   REMARKS
MILWAUKEE      MOCLDY    30  13  49 N17G25    30.27R WCI  18
WAUKESHA       CLOUDY    27  18  69 NW15G26   30.28R WCI  15
MILWAUKEE/TIMM CLOUDY    28  12  50 N13G28    30.28R WCI  18
RACINE         CLOUDY    30  16  56 N14G24    30.28R WCI  19
BURLINGTON     CLOUDY    29  20  70 N17G23    30.27R WCI  17
KENOSHA        CLOUDY    30  19  63 N14G25    30.26R WCI  19
FOND DU LAC    CLOUDY    25  11  55 N15       30.32R WCI  13
SHEBOYGAN      CLOUDY    24  12  60 NW17G24   30.29R WCI  11
WEST BEND      CLOUDY    27  14  59 N14G24    30.28R WCI  15
JUNEAU         CLOUDY    25  14  62 N14G24    30.30R WCI  14
$$

LSZ147-162-300500-
LAKE SUPERIOR

STATION/POSITION TIME  TEMP    WIND        PRES    WAVE
                       AIR SEA DIR/SP/G            HT/PER
                 (UTC) (F)     (DEG/KT/KT) (MB)    (FT/S)
DEVILS ISLAND    0300   15     330/ 18/ 22 1032.8R
PORT WING        0340   17     320/ 12/ 20 1031.8R
SAXON HARBOR     0300   20     340/ 16/ 22 1030.1R
$$

LMZ867-665-643>646-300500-
LAKE MICHIGAN

STATION/POSITION TIME  TEMP    WIND        PRES    WAVE
                       AIR SEA DIR/SP/G            HT/PER
                 (UTC) (F)     (DEG/KT/KT) (MB)    (FT/S)
NORTHPORT PIER   0306   20     330/ 25     1024.7R
SISTER BAY       0213   19      20/ 25/ 32   N/A
KEWAUNEE LAKESHO 0300   22     340/ 12/ 19 1024.3R
SHEBOYGAN LAKESH 0300   27     340/ 21/ 28 1025.8R
PORT WASHINGTON  0340   27     340/  7/ 12 1026.4R
MILWAUKEE LAKESH 0300   31     340/ 15/ 19   N/A
KENOSHA   LAKESH 0300   33     350/ 19/ 25 1023.4R
$$

TC  - TEMPERATURE IN CELSIUS
VSB - VISIBILITY IN STATUTE MILES
WCI - WIND CHILL INDEX
HX  - HEAT INDEX



USA.gov is the U.S. government's official web portal to all federal, state and local government web resources and services.